Location: Azul
(36.7830°S, 59.8500°W)
Time: 04:26:50
(UTC-03:00)

ISS - Pass Details

Date: 17 October 2019
Orbit: 411 x 421 km, 51.6° (Epoch: 15 October)

Event Time Altitude Azimuth Distance (km) Brightness Sun altitude
Exits shadow 05:23:51 11° 257° (WSW) 1,448 -1.5 -10.3°
Maximum altitude 05:26:28 24° 311° (NW) 917 -2.6 -9.8°
Drops below altitude 10° 05:29:17 10° 7° (N) 1,508 -1.1 -9.2°
Sets 05:31:36 0° 21° (NNE) 2,365 0.1 -8.8°
